Flag for Germany Weather past 2 weeks in Schwerin, Mecklenburg-Western Pomerania, Germany

Now
41 °F

Overcast.


Feels Like: 38 °F
Forecast: 36 / 42 °F
Wind: 5 mph from Southwest

Location: Schwerin

Current Time: Mar 1, 2015 at 6:44:54 PM

Latest Report: Mar 1, 2015 at 6:00 PM


Visibility: 17 mi

Pressure: 29.50 "Hg

Humidity: 93%

Dew point: 39 °F

Location of SchwerinLocation

Historic Weather in Schwerin — Graph

°F

Schwerin temperature yesterday

Maximum temperature yesterday: 42 °F (at 5:00 PM)
Minimum temperature yesterday: 32 °F (at 7:00 AM)
Average temperature yesterday: 37 °F

Past Weeks' High & Low Weather Summary

 TemperatureHumidityPressure
High49 °F (Feb 26, 3:00 PM)100% (Feb 18, 12:00 AM)30.69 "Hg (Feb 18, 12:00 AM)
Low27 °F (Feb 17, 8:00 AM)45% (Feb 26, 5:00 PM)29.23 "Hg (Feb 21, 1:00 PM)
Average37 °F83%29.95 "Hg
* Reported Feb 14 5:00 PM — Mar 1 5:00 PM, Schwerin, Weather by CustomWeather, © 2015

Note: Actual official high and low records may vary slightly from our data, if they occured in-between our weather recording intervals... More about our weather records

Advertising

Schwerin weather history for previous 24 hours

 ConditionsComfort  
Time TempWeatherWind HumidityBarometerVisibility
5:00 PM
Sun, Mar 1
42 °FPartly sunny.2 mph91%29.47 "Hg19 mi
3:00 PM44 °FOvercast.6 mph90%29.47 "Hg11 mi
2:00 PM42 °FOvercast.6 mph94%29.47 "Hg6 mi
1:00 PM40 °FLow clouds.6 mph97%29.47 "Hg4 mi
12:00 PM38 °FLow clouds.7 mph97%29.47 "Hg4 mi
11:00 AM37 °FLight freezing rain. Low clouds.7 mph97%29.50 "Hg1 mi
10:00 AM36 °FDrizzle. Low clouds.5 mph96%29.50 "Hg2 mi
9:00 AM35 °FLight rain. Overcast.5 mph93%29.53 "Hg2 mi
8:00 AM35 °FLight rain. Overcast.3 mph90%29.56 "Hg4 mi
7:00 AM36 °FLight rain. Overcast.5 mph77%29.59 "Hg5 mi
6:00 AM36 °FOvercast.3 mph70%29.61 "Hg11 mi
5:00 AM36 °FLight rain. Overcast.5 mph68%29.65 "Hg11 mi
3:00 AM35 °FOvercast.3 mph70%29.72 "Hg12 mi
2:00 AM35 °FClear.3 mph70%29.77 "Hg14 mi
1:00 AM35 °FPassing clouds.3 mph69%29.81 "Hg14 mi
12:00 AM36 °FPassing clouds.3 mph70%29.84 "Hg15 mi
11:00 PM
Sat, Feb 28
36 °FPassing clouds.3 mph71%29.88 "Hg14 mi
9:00 PM37 °FPassing clouds.3 mph69%29.94 "Hg13 mi
8:00 PM37 °FPassing clouds.3 mph69%29.95 "Hg13 mi
7:00 PM38 °FClear.2 mph68%29.97 "Hg12 mi
6:00 PM39 °FPassing clouds.2 mph68%29.98 "Hg14 mi
Weather by CustomWeather, © 2015

See weather overviewHow to use our weather pages